• In Hungary
  • List of Countries
  • For 7 days
  • Water Temperature
  • Satellite Maps
  • Weather Map
  • News
  • Weather Widgets
  • user-avatar
    Login

    Hourly Weather Mulhule

    Today, 18 November, Saturday

    Time Temperature Precipitation Wind Pressure Humidity
    00:00 +28°C° 0 mm 8 mps 759 mmHg 64%
    01:00 +28°C° 0 mm 8 mps 759 mmHg 65%
    02:00 +28°C° 0 mm 8 mps 759 mmHg 67%
    03:00 +27°C° 0 mm 8 mps 759 mmHg 68%
    04:00 +27°C° 0 mm 8 mps 759 mmHg 69%
    05:00 +27°C° 0 mm 8 mps 760 mmHg 70%
    06:00 +27°C° 0 mm 8 mps 760 mmHg 71%
    07:00 +28°C° 0 mm 8 mps 760 mmHg 66%
    08:00 +29°C° 0 mm 9 mps 760 mmHg 60%
    09:00 +31°C° 0 mm 9 mps 761 mmHg 55%
    10:00 +32°C° 0 mm 9 mps 760 mmHg 51%
    11:00 +33°C° 0 mm 10 mps 760 mmHg 48%
    12:00 +34°C° 0 mm 10 mps 760 mmHg 44%
    13:00 +34°C° 0 mm 10 mps 759 mmHg 44%
    14:00 +34°C° 0 mm 10 mps 759 mmHg 45%
    15:00 +34°C° 0 mm 10 mps 758 mmHg 45%
    16:00 +33°C° 0 mm 9 mps 758 mmHg 49%
    17:00 +32°C° 0 mm 9 mps 759 mmHg 54%
    18:00 +31°C° 0 mm 9 mps 759 mmHg 58%
    19:00 +29°C° 0 mm 9 mps 759 mmHg 61%
    20:00 +29°C° 0 mm 9 mps 760 mmHg 63%
    21:00 +29°C° 0 mm 9 mps 761 mmHg 66%
    22:00 +28°C° 0 mm 9 mps 761 mmHg 66%
    23:00 +28°C° 0 mm 9 mps 761 mmHg 67%

    Tomorrow, 19 November, Sunday

    Time Temperature Precipitation Wind Pressure Humidity
    00:00 +28°C° 0 mm 9 mps 761 mmHg 68%
    01:00 +28°C° 0 mm 9 mps 760 mmHg 69%
    02:00 +28°C° 0 mm 8 mps 760 mmHg 70%
    03:00 +27°C° 0 mm 8 mps 760 mmHg 71%
    04:00 +27°C° 0 mm 8 mps 760 mmHg 72%
    05:00 +27°C° 0 mm 8 mps 760 mmHg 73%
    06:00 +27°C° 0 mm 8 mps 760 mmHg 75%
    07:00 +28°C° 0 mm 9 mps 761 mmHg 68%
    08:00 +29°C° 0 mm 9 mps 761 mmHg 62%
    09:00 +31°C° 0 mm 10 mps 761 mmHg 56%
    10:00 +32°C° 0 mm 10 mps 761 mmHg 53%
    11:00 +33°C° 0 mm 10 mps 761 mmHg 49%
    12:00 +34°C° 0 mm 10 mps 761 mmHg 45%
    13:00 +34°C° 0 mm 10 mps 760 mmHg 45%
    14:00 +34°C° 0 mm 10 mps 759 mmHg 45%
    15:00 +34°C° 0 mm 10 mps 759 mmHg 45%
    16:00 +33°C° 0 mm 9 mps 759 mmHg 50%
    17:00 +32°C° 0 mm 9 mps 759 mmHg 55%
    18:00 +31°C° 0 mm 9 mps 759 mmHg 61%
    19:00 +29°C° 0 mm 9 mps 760 mmHg 63%
    20:00 +29°C° 0 mm 9 mps 760 mmHg 65%
    21:00 +29°C° 0 mm 9 mps 761 mmHg 67%
    22:00 +28°C° 0 mm 9 mps 761 mmHg 69%
    23:00 +28°C° 0 mm 9 mps 761 mmHg 70%

    Day after tomorrow, 20 November, Monday

    Time Temperature Precipitation Wind Pressure Humidity
    00:00 +28°C° 0 mm 9 mps 761 mmHg 71%
    01:00 +28°C° 0 mm 9 mps 760 mmHg 72%
    02:00 +28°C° 0 mm 9 mps 760 mmHg 73%
    03:00 +27°C° 0 mm 8 mps 760 mmHg 74%
    04:00 +27°C° 0 mm 8 mps 760 mmHg 75%
    05:00 +27°C° 0 mm 8 mps 760 mmHg 75%
    06:00 +27°C° 0 mm 8 mps 760 mmHg 76%
    07:00 +28°C° 0 mm 9 mps 761 mmHg 70%
    08:00 +29°C° 0 mm 9 mps 761 mmHg 64%
    09:00 +31°C° 0 mm 10 mps 762 mmHg 58%
    10:00 +32°C° 0 mm 10 mps 761 mmHg 55%
    11:00 +33°C° 0 mm 10 mps 761 mmHg 52%
    12:00 +34°C° 0 mm 10 mps 760 mmHg 49%
    13:00 +34°C° 0 mm 10 mps 760 mmHg 49%
    14:00 +34°C° 0 mm 10 mps 759 mmHg 50%
    15:00 +34°C° 0 mm 10 mps 758 mmHg 51%
    16:00 +33°C° 0 mm 10 mps 758 mmHg 55%
    17:00 +32°C° 0 mm 9 mps 758 mmHg 59%
    18:00 +29°C° 0 mm 9 mps 758 mmHg 64%
    19:00 +29°C° 0 mm 9 mps 759 mmHg 66%
    20:00 +29°C° 0 mm 9 mps 760 mmHg 68%
    21:00 +29°C° 0 mm 9 mps 760 mmHg 70%
    22:00 +28°C° 0 mm 9 mps 760 mmHg 71%
    23:00 +28°C° 0 mm 9 mps 760 mmHg 72%

    21 November, Tuesday

    Time Temperature Precipitation Wind Pressure Humidity
    00:00 +28°C° 0 mm 9 mps 760 mmHg 73%
    01:00 +28°C° 0 mm 9 mps 759 mmHg 74%
    02:00 +28°C° 0 mm 9 mps 759 mmHg 74%
    03:00 +27°C° 0 mm 9 mps 758 mmHg 75%
    04:00 +27°C° 0 mm 9 mps 759 mmHg 76%
    05:00 +27°C° 0 mm 9 mps 759 mmHg 76%
    06:00 +27°C° 0 mm 9 mps 759 mmHg 77%
    07:00 +28°C° 0 mm 9 mps 759 mmHg 71%
    08:00 +29°C° 0 mm 9 mps 760 mmHg 65%
    09:00 +31°C° 0 mm 10 mps 760 mmHg 59%
    10:00 +32°C° 0 mm 10 mps 760 mmHg 55%
    11:00 +33°C° 0 mm 10 mps 759 mmHg 50%
    12:00 +34°C° 0 mm 10 mps 758 mmHg 46%
    13:00 +34°C° 0 mm 10 mps 758 mmHg 46%
    14:00 +34°C° 0 mm 10 mps 757 mmHg 47%
    15:00 +34°C° 0 mm 10 mps 756 mmHg 47%
    16:00 +33°C° 0 mm 9 mps 756 mmHg 53%
    17:00 +31°C° 0 mm 9 mps 757 mmHg 58%
    18:00 +29°C° 0 mm 9 mps 757 mmHg 63%
    19:00 +29°C° 0 mm 8 mps 757 mmHg 66%
    20:00 +29°C° 0 mm 8 mps 758 mmHg 69%
    21:00 +28°C° 0 mm 8 mps 759 mmHg 71%
    22:00 +28°C° 0 mm 8 mps 758 mmHg 73%
    23:00 +28°C° 0 mm 8 mps 758 mmHg 74%

    22 November, Wednesday

    Time Temperature Precipitation Wind Pressure Humidity
    00:00 +28°C° 0 mm 8 mps 758 mmHg 75%
    01:00 +28°C° 0 mm 8 mps 757 mmHg 75%
    02:00 +27°C° 0 mm 8 mps 757 mmHg 76%
    03:00 +27°C° 0 mm 8 mps 756 mmHg 76%
    04:00 +27°C° 0 mm 8 mps 757 mmHg 77%
    05:00 +27°C° 0 mm 8 mps 757 mmHg 78%
    06:00 +27°C° 0 mm 8 mps 758 mmHg 78%
    07:00 +28°C° 0 mm 8 mps 758 mmHg 72%
    08:00 +29°C° 0 mm 9 mps 759 mmHg 66%
    09:00 +31°C° 0 mm 9 mps 759 mmHg 59%
    10:00 +32°C° 0 mm 9 mps 759 mmHg 55%
    11:00 +33°C° 0 mm 9 mps 758 mmHg 51%
    12:00 +34°C° 0 mm 9 mps 757 mmHg 48%
    13:00 +34°C° 0 mm 9 mps 757 mmHg 48%
    14:00 +34°C° 0 mm 9 mps 756 mmHg 48%
    15:00 +34°C° 0 mm 9 mps 755 mmHg 49%
    16:00 +33°C° 0 mm 8 mps 756 mmHg 54%
    17:00 +32°C° 0 mm 8 mps 756 mmHg 59%
    18:00 +31°C° 0 mm 8 mps 757 mmHg 65%
    19:00 +30°C° 0 mm 7 mps 757 mmHg 67%
    20:00 +29°C° 0 mm 7 mps 758 mmHg 70%
    21:00 +29°C° 0 mm 7 mps 758 mmHg 73%
    22:00 +29°C° 0 mm 7 mps 758 mmHg 74%
    23:00 +28°C° 0 mm 7 mps 758 mmHg 75%

    23 November, Thursday

    Time Temperature Precipitation Wind Pressure Humidity
    00:00 +28°C° 0 mm 7 mps 757 mmHg 76%
    01:00 +28°C° 0 mm 7 mps 757 mmHg 77%
    02:00 +28°C° 0 mm 7 mps 757 mmHg 78%
    03:00 +28°C° 0 mm 7 mps 757 mmHg 79%
    04:00 +27°C° 0 mm 7 mps 757 mmHg 79%
    05:00 +27°C° 0 mm 8 mps 758 mmHg 80%
    06:00 +27°C° 0 mm 8 mps 758 mmHg 80%
    07:00 +28°C° 0 mm 8 mps 758 mmHg 73%
    08:00 +29°C° 0 mm 8 mps 759 mmHg 67%
    09:00 +32°C° 0 mm 9 mps 759 mmHg 60%
    10:00 +33°C° 0 mm 9 mps 759 mmHg 56%
    11:00 +34°C° 0 mm 9 mps 758 mmHg 52%
    12:00 +35°C° 0 mm 9 mps 757 mmHg 48%
    13:00 +35°C° 0 mm 9 mps 757 mmHg 49%
    14:00 +34°C° 0 mm 8 mps 756 mmHg 50%
    15:00 +34°C° 0 mm 8 mps 756 mmHg 51%
    16:00 +33°C° 0 mm 8 mps 756 mmHg 55%
    17:00 +32°C° 0 mm 8 mps 756 mmHg 60%
    18:00 +30°C° 0 mm 7 mps 757 mmHg 65%
    19:00 +31°C° 0 mm 8 mps 757 mmHg 67%
    20:00 +29°C° 0 mm 8 mps 758 mmHg 69%
    21:00 +29°C° 0 mm 8 mps 758 mmHg 72%
    22:00 +29°C° 0 mm 8 mps 758 mmHg 74%
    23:00 +28°C° 0 mm 8 mps 758 mmHg 75%
    Show more